Location: Treviso
(45.6669°N, 12.2430°E)
Time: 13:46:24
(UTC+02:00)

ISS - Pass Details

Date: 18 May 2018
Orbit: 402 x 407 km, 51.6° (Epoch: 26 May)

Event Time Altitude Azimuth Distance (km) Brightness Sun altitude
Rises 04:56:53 0° 298° (WNW) 2,320 -0.2 -6.7°
Reaches altitude 10° 04:58:58 10° 299° (WNW) 1,458 -1.2 -6.4°
Maximum altitude 05:02:14 83° 26° (NNE) 410 -3.7 -5.9°
Drops below altitude 10° 05:05:30 10° 116° (ESE) 1,453 -0.6 -5.5°
Sets 05:07:34 0° 118° (ESE) 2,310 0.4 -5.2°
